Location: Newark
(27.9675°N, 86.8869°E)
Time: 09:25:19
(UTC+00:00)

SR - Pass Details

Date: 24 October 2019
Orbit: 574 x 882 km, 66.7° (Epoch: 11 November)

Event Time Altitude Azimuth Distance (km) Brightness Sun altitude
Rises 00:34:22 0° 340° (NNW) 3,477 ? 2.7°
Reaches altitude 10° 00:36:56 10° 344° (NNW) 2,540 ? 3.2°
Maximum altitude 00:42:47 59° 64° (ENE) 997 ? 4.5°
Drops below altitude 10° 00:48:26 10° 143° (SE) 2,455 ? 5.7°
Sets 00:50:52 0° 147° (SSE) 3,353 ? 6.2°
